Home > Weather > Freistadt > Past weeks

Flag for Austria Weather for the Past 2 Weeks in Freistadt, Upper Austria, Austria

Now
38 °F

Fog.


Feels Like: 38 °F
Forecast: 31 / 38 °F
Wind: 1 mph from West

Location: Rohrbach

Current Time: Feb 15, 2016 at 1:31:25 AM

Latest Report: Feb 15, 2016 at 12:00 AM


Visibility: N/A

Pressure: 29.47 "Hg (27.48 "Hg at 565m altitude)

Humidity: 98%

Dew point: 37 °F

Location of FreistadtLocation

Historic Weather in Freistadt — Graph

°F

Freistadt Temperature Yesterday

Maximum temperature yesterday: 48 °F (at 2:00 PM)
Minimum temperature yesterday: 31 °F (at 8:00 AM)
Average temperature yesterday: 39 °F

High & Low Weather Summary for the Past Weeks

 TemperatureHumidityPressure
High50 °F (Feb 7, 3:00 PM)100% (Feb 1, 2:00 AM)30.43 "Hg (Feb 1, 2:00 AM)
Low26 °F (Feb 12, 7:00 AM)58% (Feb 8, 2:00 PM)29.18 "Hg (Feb 14, 2:00 PM)
Average37 °F88%29.85 "Hg
* Reported Jan 31 3:00 AM — Midnight between Feb 14 and Feb 15, Freistadt, Weather by CustomWeather, © 2016

Note: Actual official high and low records may vary slightly from our data, if they occured in-between our weather recording intervals... More about our weather records

Advertising

Freistadt Weather History for the Previous 24 Hours

 ConditionsComfort  
Time TempWeatherWind HumidityBarometerVisibility
12:00 AM
Mon, Feb 15
38 °FFog.1 mph98%29.47 "HgN/A
9:00 PM
Sun, Feb 14
39 °FChilly.1 mph93%29.35 "HgN/A
8:00 PM39 °FChilly.2 mph93%29.29 "HgN/A
7:00 PM39 °FChilly.1 mph93%29.29 "HgN/A
6:00 PM40 °FQuite cool.2 mph89%29.23 "HgN/A
5:00 PM41 °FQuite cool.1 mph88%29.23 "HgN/A
4:00 PM42 °FQuite cool.1 mph85%29.21 "HgN/A
3:00 PM48 °FCool.No wind65%29.18 "HgN/A
2:00 PM48 °FCool.2 mph63%29.18 "HgN/A
1:00 PM47 °FCool.2 mph72%29.21 "HgN/A
12:00 PM43 °FQuite cool.1 mph77%29.26 "HgN/A
11:00 AM37 °FChilly.1 mph88%29.32 "HgN/A
10:00 AM33 °FChilly.2 mph99%29.32 "HgN/A
9:00 AM31 °FChilly.1 mph99%29.32 "HgN/A
8:00 AM31 °FChilly.1 mph98%29.32 "HgN/A
7:00 AM32 °FChilly.1 mph98%29.32 "HgN/A
6:00 AM32 °FChilly.1 mph98%29.29 "HgN/A
Weather by CustomWeather, © 2016

See weather overviewHow to use our weather pages